TimeEDT,TemperatureF,Dew PointF,Humidity,Sea Level PressureIn,VisibilityMPH,Wind Direction,Wind SpeedMPH,Gust SpeedMPH,PrecipitationIn,Events,Conditions,WindDirDegrees,DateUTC
12:56 AM,70.0,57.0,63,30.06,10.0,SW,6.9,-,N/A,,Clear,220,2013-05-16 04:56:00
1:56 AM,69.1,55.9,63,30.05,10.0,SW,10.4,-,N/A,,Clear,230,2013-05-16 05:56:00
2:56 AM,68.0,54.0,61,30.04,10.0,WSW,9.2,-,N/A,,Clear,240,2013-05-16 06:56:00
3:56 AM,68.0,53.1,59,30.03,10.0,WSW,11.5,-,N/A,,Clear,240,2013-05-16 07:56:00
4:56 AM,66.0,54.0,65,30.03,10.0,SW,8.1,-,N/A,,Clear,230,2013-05-16 08:56:00
5:56 AM,64.9,55.0,70,30.04,10.0,SW,5.8,-,N/A,,Clear,230,2013-05-16 09:56:00
6:56 AM,66.0,55.0,68,30.06,10.0,WSW,6.9,-,N/A,,Clear,250,2013-05-16 10:56:00
7:56 AM,69.1,57.0,65,30.08,10.0,WSW,11.5,-,N/A,,Mostly Cloudy,250,2013-05-16 11:56:00
8:56 AM,72.0,57.0,59,30.09,10.0,West,9.2,-,N/A,,Overcast,270,2013-05-16 12:56:00
9:56 AM,75.9,57.9,54,30.10,10.0,West,8.1,-,N/A,,Overcast,280,2013-05-16 13:56:00
10:56 AM,79.0,59.0,50,30.10,10.0,West,11.5,-,N/A,,Overcast,280,2013-05-16 14:56:00
11:56 AM,80.1,59.0,48,30.11,10.0,West,11.5,-,N/A,,Mostly Cloudy,270,2013-05-16 15:56:00
12:56 PM,78.1,60.1,54,30.09,10.0,West,9.2,-,N/A,,Overcast,260,2013-05-16 16:56:00
1:56 PM,77.0,61.0,58,30.08,10.0,WSW,8.1,-,N/A,,Overcast,240,2013-05-16 17:56:00
2:56 PM,82.9,63.0,51,30.06,10.0,SSW,6.9,-,N/A,,Mostly Cloudy,210,2013-05-16 18:56:00
3:56 PM,81.0,61.0,50,30.05,10.0,SW,8.1,-,N/A,,Overcast,230,2013-05-16 19:56:00
4:56 PM,82.9,62.1,49,30.04,10.0,WSW,8.1,-,N/A,,Mostly Cloudy,240,2013-05-16 20:56:00
5:56 PM,82.9,60.1,46,30.03,10.0,West,5.8,-,N/A,,Mostly Cloudy,280,2013-05-16 21:56:00
6:56 PM,81.0,62.1,52,30.03,10.0,Variable,3.5,-,N/A,,Mostly Cloudy,0,2013-05-16 22:56:00
7:56 PM,77.0,64.9,66,30.03,10.0,South,4.6,-,N/A,,Mostly Cloudy,190,2013-05-16 23:56:00
8:56 PM,73.0,63.0,71,30.05,10.0,South,3.5,-,N/A,,Mostly Cloudy,190,2013-05-17 00:56:00
9:56 PM,72.0,64.0,76,30.06,10.0,Variable,5.8,-,N/A,,Scattered Clouds,0,2013-05-17 01:56:00
10:56 PM,71.1,64.0,78,30.07,10.0,Variable,3.5,-,N/A,,Scattered Clouds,0,2013-05-17 02:56:00
11:56 PM,70.0,66.0,87,30.07,10.0,SSW,4.6,-,N/A,,Scattered Clouds,210,2013-05-17 03:56:00